Le Mars, IA

9:21 AM CDT on October 15, 2019 (GMT -0500)
Le Mars Municipal

Weather History for KLRJ - September, 2019

Change the Weather History Date:

Saturday, September 21, 2019

  Actual Average Record
Temperature  
Mean Temperature 74 °F -  
Max Temperature 84 °F 73 °F 91 °F (2005)
Min Temperature 62 °F 47 °F 28 °F (2000)
Cooling Degree Days 9    
Growing Degree Days 24 (Base 50)    
Moisture  
Dew Point 69 °F    
Average Humidity 86    
Maximum Humidity 100    
Minimum Humidity 51    
Precipitation  
Precipitation 0.00 in - - ()
Sea Level Pressure  
Sea Level Pressure 29.81 in    
Wind  
Wind Speed 12 mph (SSW)    
Max Wind Speed 20 mph    
Max Gust Speed 26 mph    
Visibility 10 miles    
Events      
Averages and records for this station are not official NWS values.
T = Trace of Precipitation, MM = Missing Value Source: NWS Daily Summary

Daily Weather History Graph

Daily Weather History Graph

Search for Another Location

Airport or City:

Astronomy

Sep. 21, 2019 Rise Set
Actual Time 7:10 AM CDT 7:24 PM CDT
Civil Twilight 6:42 AM CDT 7:52 PM CDT
Nautical Twilight 6:09 AM CDT 8:25 PM CDT
Astronomical Twilight 5:35 AM CDT 8:59 PM CDT
Moon 11:53 PM CDT (9/21) 2:27 PM CDT (9/21)
Length of Visible Light 13h 09m
Length of Day
12h 13m
Waning Gibbous, 54% of the Moon is Illuminated
Sep 21
Waning Gibbous
Sep 21
Last Quarter
Sep 28
New
Oct 5
First Quarter
Oct 13
Full

Hourly Weather History & Observations

Time (CDT) Temp. Heat Index Dew Point Humidity Pressure Visibility Wind Dir Wind Speed Gust Speed Precip Events Conditions
12:15 AM 73.4 °F - 69.8 °F 88% 29.85 in 10.0 mi South 13.8 mph - N/A   Overcast
12:35 AM 71.6 °F - 69.8 °F 94% 29.85 in 5.0 mi SSE 16.1 mph 21.9 mph N/A   Overcast
12:55 AM 71.6 °F - 69.8 °F 94% 29.84 in 10.0 mi South 17.3 mph 25.3 mph N/A   Overcast
1:15 AM 71.6 °F - 69.8 °F 94% 29.84 in 10.0 mi SSE 13.8 mph - N/A   Overcast
1:35 AM 71.6 °F - 69.8 °F 94% 29.84 in 10.0 mi SSE 11.5 mph 18.4 mph N/A   Overcast
1:55 AM 71.6 °F - 69.8 °F 94% 29.84 in 10.0 mi SSE 12.7 mph 19.6 mph N/A   Overcast
2:15 AM 71.6 °F - 71.6 °F 100% 29.84 in 9.0 mi SSE 15.0 mph - N/A   Overcast
2:35 AM 71.6 °F - 71.6 °F 100% 29.83 in 10.0 mi SSE 12.7 mph 19.6 mph N/A   Overcast
2:55 AM 71.6 °F - 71.6 °F 100% 29.83 in 10.0 mi SSE 11.5 mph - N/A   Overcast
3:15 AM 71.6 °F - 71.6 °F 100% 29.82 in 10.0 mi SSE 12.7 mph 23.0 mph N/A   Overcast
3:35 AM 71.6 °F - 71.6 °F 100% 29.81 in 10.0 mi South 15.0 mph - N/A   Overcast
3:55 AM 71.6 °F - 71.6 °F 100% 29.81 in 10.0 mi South 15.0 mph - N/A   Overcast
4:15 AM 71.6 °F - 71.6 °F 100% 29.80 in 10.0 mi SSE 13.8 mph - N/A   Overcast
4:35 AM 71.6 °F - 71.6 °F 100% 29.80 in 5.0 mi SSE 15.0 mph 20.7 mph N/A   Overcast
4:55 AM 71.6 °F - 71.6 °F 100% 29.79 in 5.0 mi SSE 16.1 mph - N/A   Overcast
5:15 AM 71.6 °F - 71.6 °F 100% 29.78 in 5.0 mi SSE 18.4 mph - N/A   Overcast
5:35 AM 71.6 °F - 71.6 °F 100% 29.77 in 10.0 mi SSE 17.3 mph 25.3 mph N/A   Overcast
5:55 AM 71.6 °F - 71.6 °F 100% 29.76 in 10.0 mi SSE 19.6 mph - N/A   Overcast
6:15 AM 71.6 °F - 71.6 °F 100% 29.76 in 10.0 mi SSE 16.1 mph 24.2 mph N/A   Overcast
6:35 AM 71.6 °F - 71.6 °F 100% 29.78 in 10.0 mi South 11.5 mph 18.4 mph N/A   Overcast
6:55 AM 71.6 °F - 71.6 °F 100% 29.78 in 10.0 mi South 12.7 mph - N/A   Overcast
7:15 AM 73.4 °F - 71.6 °F 94% 29.77 in 10.0 mi South 15.0 mph - N/A   Overcast
7:35 AM 73.4 °F - 73.4 °F 100% 29.77 in 10.0 mi South 15.0 mph - N/A   Overcast
7:55 AM 73.4 °F - 73.4 °F 100% 29.77 in 10.0 mi South 13.8 mph 21.9 mph N/A   Overcast
8:15 AM 73.4 °F - 73.4 °F 100% 29.76 in 10.0 mi South 15.0 mph 26.5 mph N/A   Overcast
8:35 AM 73.4 °F - 73.4 °F 100% 29.77 in 10.0 mi South 15.0 mph 21.9 mph N/A   Overcast
8:55 AM 73.4 °F - 73.4 °F 100% 29.77 in 10.0 mi South 12.7 mph 23.0 mph N/A   Overcast
9:15 AM 73.4 °F - 73.4 °F 100% 29.78 in 10.0 mi South 11.5 mph 19.6 mph N/A   Overcast
9:35 AM 73.4 °F - 73.4 °F 100% 29.77 in 10.0 mi South 15.0 mph 23.0 mph N/A   Overcast
9:55 AM 75.2 °F - 73.4 °F 94% 29.77 in 10.0 mi South 15.0 mph 20.7 mph N/A   Mostly Cloudy
10:15 AM 75.2 °F - 73.4 °F 94% 29.77 in 10.0 mi South 12.7 mph 21.9 mph N/A   Overcast
10:35 AM 75.2 °F - 73.4 °F 94% 29.78 in 10.0 mi South 11.5 mph 21.9 mph N/A   Overcast
10:55 AM 75.2 °F - 73.4 °F 94% 29.78 in 10.0 mi South 13.8 mph - N/A   Overcast
11:35 AM 77.0 °F - 73.4 °F 89% 29.77 in 10.0 mi South 11.5 mph 21.9 mph N/A   Overcast
11:55 AM 78.8 °F - 73.4 °F 83% 29.77 in 10.0 mi South 18.4 mph 24.2 mph N/A   Mostly Cloudy
12:35 PM 78.8 °F - 73.4 °F 83% 29.77 in 10.0 mi South 16.1 mph - N/A   Mostly Cloudy
12:55 PM 80.6 °F 85.4 °F 73.4 °F 79% 29.76 in 10.0 mi South 15.0 mph 21.9 mph N/A   Overcast
1:35 PM 78.8 °F - 73.4 °F 83% 29.77 in 10.0 mi West 8.1 mph 15.0 mph N/A   Overcast
1:55 PM 80.6 °F 84.6 °F 71.6 °F 74% 29.76 in 10.0 mi West 11.5 mph - N/A   Scattered Clouds
2:15 PM 82.4 °F 87.2 °F 71.6 °F 70% 29.77 in 10.0 mi West 8.1 mph 17.3 mph N/A   Partly Cloudy
2:55 PM 82.4 °F 86.3 °F 69.8 °F 66% 29.77 in 10.0 mi WSW 9.2 mph - N/A   Overcast
3:15 PM 82.4 °F 86.3 °F 69.8 °F 66% 29.76 in 10.0 mi SW 9.2 mph 18.4 mph N/A   Mostly Cloudy
3:35 PM 84.2 °F 88.4 °F 69.8 °F 62% 29.76 in 10.0 mi West 10.4 mph 16.1 mph N/A   Scattered Clouds
3:55 PM 84.2 °F 88.4 °F 69.8 °F 62% 29.76 in 10.0 mi West 9.2 mph 17.3 mph N/A   Scattered Clouds
4:15 PM 84.2 °F 87.3 °F 68.0 °F 58% 29.77 in 10.0 mi WNW 12.7 mph - N/A   Clear
4:35 PM 82.4 °F 84.6 °F 66.2 °F 58% 29.77 in 10.0 mi WNW 9.2 mph - N/A   Clear
4:55 PM 82.4 °F 83.9 °F 64.4 °F 54% 29.78 in 10.0 mi West 9.2 mph - N/A   Clear
5:15 PM 82.4 °F 83.4 °F 62.6 °F 51% 29.78 in 10.0 mi West 6.9 mph - N/A   Clear
5:35 PM 82.4 °F 83.9 °F 64.4 °F 54% 29.79 in 10.0 mi WNW 4.6 mph - N/A   Clear
5:55 PM 82.4 °F 83.9 °F 64.4 °F 54% 29.80 in 10.0 mi WNW 5.8 mph - N/A   Clear
6:15 PM 80.6 °F 82.3 °F 64.4 °F 58% 29.80 in 10.0 mi West 4.6 mph - N/A   Clear
6:35 PM 80.6 °F 82.7 °F 66.2 °F 61% 29.81 in 10.0 mi Calm Calm - N/A   Clear
6:55 PM 78.8 °F - 68.0 °F 69% 29.81 in 10.0 mi Calm Calm - N/A   Clear
7:15 PM 73.4 °F - 69.8 °F 88% 29.82 in 10.0 mi Calm Calm - N/A   Clear
7:35 PM 75.2 °F - 66.2 °F 73% 29.83 in 10.0 mi NW 4.6 mph - N/A   Clear
7:55 PM 73.4 °F - 66.2 °F 78% 29.83 in 10.0 mi Calm Calm - N/A   Clear
8:15 PM 71.6 °F - 66.2 °F 83% 29.84 in 10.0 mi NNW 4.6 mph - N/A   Clear
8:35 PM 69.8 °F - 64.4 °F 83% 29.84 in 10.0 mi NNW 5.8 mph - N/A   Clear
8:55 PM 69.8 °F - 64.4 °F 83% 29.85 in 10.0 mi Calm Calm - N/A   Clear
9:15 PM 68.0 °F - 64.4 °F 88% 29.86 in 10.0 mi North 3.5 mph - N/A   Clear
9:35 PM 68.0 °F - 62.6 °F 83% 29.87 in 10.0 mi NNW 3.5 mph - N/A   Clear
9:55 PM 68.0 °F - 60.8 °F 78% 29.88 in 10.0 mi Calm Calm - N/A   Clear
10:15 PM 66.2 °F - 60.8 °F 83% 29.89 in 10.0 mi Calm Calm - N/A   Clear
10:35 PM 64.4 °F - 60.8 °F 88% 29.88 in 10.0 mi Calm Calm - N/A   Clear
10:55 PM 64.4 °F - 60.8 °F 88% 29.88 in 10.0 mi North 5.8 mph - N/A   Clear
11:15 PM 64.4 °F - 59.0 °F 83% 29.90 in 10.0 mi Calm Calm - N/A   Clear
11:35 PM 64.4 °F - 60.8 °F 88% 29.90 in 10.0 mi Calm Calm - N/A   Clear
11:55 PM 62.6 °F - 60.8 °F 94% 29.89 in 10.0 mi Calm Calm - N/A   Clear